| time (UTC) | temp F | wind direction | speed MPH | gust MPH | rain 1hr in | rain 24hr in | rain mn in | humidity % | barometer mb |
| 20260508115044 | 69 | 96 | 1.0 | 7.0 | 0.00 | 0.00 | 0.00 | 52 | 1017.6 |
| 20260508114540 | 69 | 129 | 0.0 | 7.0 | 0.00 | 0.00 | 0.00 | 53 | 1017.4 |
| 20260508114039 | 68 | 180 | 3.0 | 7.0 | 0.00 | 0.00 | 0.00 | 52 | 1016.9 |
| 20260508113539 | 68 | 104 | 1.0 | 6.0 | 0.00 | 0.00 | 0.00 | 57 | 1017.5 |
| 20260508113039 | 67 | 178 | 1.0 | 6.0 | 0.00 | 0.00 | 0.00 | 57 | 1017.9 |
| 20260508112535 | 66 | 108 | 1.0 | 3.0 | 0.00 | 0.00 | 0.00 | 58 | 1018.1 |
| 20260508112035 | 66 | 101 | 0.0 | 3.0 | 0.00 | 0.00 | 0.00 | 58 | 1018.3 |
| 20260508111538 | 66 | 61 | 0.0 | 3.0 | 0.00 | 0.00 | 0.00 | 59 | 1018.3 |
| 20260508111037 | 66 | 44 | 1.0 | 3.0 | 0.00 | 0.00 | 0.00 | 59 | 1018.6 |
| 20260508110534 | 66 | 39 | 0.0 | 5.0 | 0.00 | 0.00 | 0.00 | 58 | 1018.3 |
| 20260508110035 | 66 | 39 | 0.0 | 5.0 | 0.00 | 0.00 | 0.00 | 59 | 1018.5 |
| 20260508105535 | 66 | 111 | 0.0 | 3.0 | 0.00 | 0.00 | 0.00 | 58 | 1018.6 |
| 20260508105035 | 66 | 123 | 0.0 | 3.0 | 0.00 | 0.00 | 0.00 | 58 | 1018.8 |
| 20260508104534 | 66 | 190 | 0.0 | 3.0 | 0.00 | 0.00 | 0.00 | 58 | 1018.8 |
| 20260508104036 | 66 | 98 | 1.0 | 8.0 | 0.00 | 0.00 | 0.00 | 58 | 1019.0 |
| 20260508103534 | 66 | 309 | 2.0 | 8.0 | 0.00 | 0.00 | 0.00 | 57 | 1019.2 |
| 20260508103036 | 66 | 96 | 0.0 | 4.0 | 0.00 | 0.00 | 0.00 | 58 | 1019.0 |
| 20260508102534 | 66 | 341 | 1.0 | 4.0 | 0.00 | 0.00 | 0.00 | 58 | 1018.9 |
| 20260508102034 | 66 | 203 | 1.0 | 4.0 | 0.00 | 0.00 | 0.00 | 58 | 1019.0 |
| 20260508101534 | 66 | 65 | 0.0 | 4.0 | 0.00 | 0.00 | 0.00 | 57 | 1018.9 |
| 20260508101032 | 66 | 49 | 0.0 | 3.0 | 0.00 | 0.00 | 0.00 | 56 | 1018.9 |
| 20260508100532 | 66 | 20 | 0.0 | 5.0 | 0.00 | 0.00 | 0.00 | 57 | 1019.1 |
| 20260508100032 | 66 | 76 | 1.0 | 4.0 | 0.00 | 0.00 | 0.00 | 56 | 1019.2 |
| 20260508095532 | 66 | 74 | 1.0 | 5.0 | 0.00 | 0.00 | 0.00 | 57 | 1019.3 |
| 20260508095030 | 66 | 52 | 2.0 | 5.0 | 0.00 | 0.00 | 0.00 | 57 | 1019.4 |
| 20260508094531 | 66 | 61 | 0.0 | 5.0 | 0.00 | 0.00 | 0.00 | 56 | 1019.6 |
| 20260508094030 | 66 | 57 | 2.0 | 5.0 | 0.00 | 0.00 | 0.00 | 57 | 1019.5 |
| 20260508093531 | 65 | 76 | 1.0 | 5.0 | 0.00 | 0.00 | 0.00 | 58 | 1019.6 |
| 20260508093032 | 65 | 110 | 2.0 | 5.0 | 0.00 | 0.00 | 0.00 | 58 | 1019.6 |
| 20260508092529 | 65 | 78 | 2.0 | 6.0 | 0.00 | 0.00 | 0.00 | 57 | 1019.7 |
| 20260508092029 | 65 | 360 | 2.0 | 9.0 | 0.00 | 0.00 | 0.00 | 56 | 1019.6 |
| 20260508091529 | 65 | 9 | 2.0 | 9.0 | 0.00 | 0.00 | 0.00 | 57 | 1019.6 |
| 20260508091029 | 64 | 37 | 2.0 | 6.0 | 0.00 | 0.00 | 0.00 | 57 | 1019.5 |
| 20260508090529 | 64 | 360 | 2.0 | 4.0 | 0.00 | 0.00 | 0.00 | 59 | 1019.5 |
| 20260508090044 | 64 | 360 | 1.0 | 4.0 | 0.00 | 0.00 | 0.00 | 58 | 1019.4 |
| 20260508085528 | 64 | 360 | 1.0 | 4.0 | 0.00 | 0.00 | 0.00 | 59 | 1019.4 |
| 20260508085029 | 64 | 360 | 2.0 | 4.0 | 0.00 | 0.00 | 0.00 | 59 | 1019.3 |
| 20260508084529 | 64 | 360 | 2.0 | 4.0 | 0.00 | 0.00 | 0.00 | 57 | 1019.3 |
| 20260508084029 | 64 | 360 | 2.0 | 5.0 | 0.00 | 0.00 | 0.00 | 56 | 1019.4 |
| 20260508083531 | 64 | 360 | 2.0 | 5.0 | 0.00 | 0.00 | 0.00 | 54 | 1019.5 |
| 20260508083029 | 64 | 65 | 1.0 | 6.0 | 0.00 | 0.00 | 0.00 | 53 | 1019.6 |
| 20260508082528 | 65 | 360 | 1.0 | 6.0 | 0.00 | 0.00 | 0.00 | 51 | 1019.6 |
| 20260508082028 | 65 | 360 | 2.0 | 8.0 | 0.00 | 0.00 | 0.00 | 51 | 1019.7 |
| 20260508081532 | 65 | 76 | 2.0 | 6.0 | 0.00 | 0.00 | 0.00 | 50 | 1019.7 |
| 20260508081027 | 65 | 71 | 2.0 | 6.0 | 0.00 | 0.00 | 0.00 | 48 | 1019.6 |
| 20260508080531 | 66 | 17 | 3.0 | 6.0 | 0.00 | 0.00 | 0.00 | 48 | 1019.6 |
| 20260508080036 | 66 | 88 | 2.0 | 8.0 | 0.00 | 0.00 | 0.00 | 47 | 1019.5 |
| 20260508075527 | 66 | 59 | 2.0 | 8.0 | 0.00 | 0.00 | 0.00 | 48 | 1019.6 |
| 20260508075025 | 65 | 63 | 3.0 | 6.0 | 0.00 | 0.00 | 0.00 | 48 | 1019.5 |
| 20260508074527 | 65 | 86 | 3.0 | 8.0 | 0.00 | 0.00 | 0.00 | 47 | 1019.5 |
| 20260508074026 | 65 | 40 | 3.0 | 8.0 | 0.00 | 0.00 | 0.00 | 48 | 1019.5 |
| 20260508073526 | 65 | 69 | 3.0 | 6.0 | 0.00 | 0.00 | 0.00 | 49 | 1019.5 |
| 20260508073022 | 64 | 360 | 3.0 | 10.0 | 0.00 | 0.00 | 0.00 | 48 | 1019.5 |
| 20260508072521 | 64 | 65 | 3.0 | 10.0 | 0.00 | 0.00 | 0.00 | 47 | 1019.5 |
| 20260508072019 | 64 | 72 | 3.0 | 7.0 | 0.00 | 0.00 | 0.00 | 48 | 1019.6 |
| 20260508071519 | 63 | 59 | 2.0 | 7.0 | 0.00 | 0.00 | 0.00 | 50 | 1019.6 |
| 20260508071022 | 63 | 112 | 3.0 | 9.0 | 0.00 | 0.00 | 0.00 | 51 | 1019.7 |
| 20260508070518 | 63 | 68 | 3.0 | 9.0 | 0.00 | 0.00 | 0.00 | 52 | 1019.8 |
| 20260508070015 | 63 | 69 | 2.0 | 5.0 | 0.00 | 0.00 | 0.00 | 53 | 1019.8 |
| 20260508065514 | 63 | 75 | 2.0 | 4.0 | 0.00 | 0.00 | 0.00 | 53 | 1019.9 |
| 20260508065018 | 62 | 360 | 1.0 | 5.0 | 0.00 | 0.00 | 0.00 | 52 | 1019.8 |
| 20260508064513 | 62 | 76 | 2.0 | 6.0 | 0.00 | 0.00 | 0.00 | 51 | 1019.8 |
| 20260508064013 | 62 | 64 | 2.0 | 6.0 | 0.00 | 0.00 | 0.00 | 49 | 1019.7 |
| 20260508063511 | 62 | 119 | 1.0 | 6.0 | 0.00 | 0.00 | 0.00 | 50 | 1019.6 |
| 20260508063011 | 62 | 92 | 1.0 | 6.0 | 0.00 | 0.00 | 0.00 | 51 | 1019.7 |
| 20260508062510 | 62 | 101 | 2.0 | 6.0 | 0.00 | 0.00 | 0.00 | 51 | 1019.6 |
| 20260508062009 | 62 | 68 | 1.0 | 4.0 | 0.00 | 0.00 | 0.00 | 54 | 1019.6 |
| 20260508061509 | 62 | 360 | 1.0 | 4.0 | 0.00 | 0.00 | 0.00 | 55 | 1019.6 |
| 20260508061014 | 62 | 360 | 1.0 | 4.0 | 0.00 | 0.00 | 0.00 | 55 | 1019.5 |
| 20260508060509 | 62 | 360 | 0.0 | 4.0 | 0.00 | 0.00 | 0.00 | 56 | 1019.5 |
| 20260508060008 | 62 | 360 | 0.0 | 3.0 | 0.00 | 0.00 | 0.00 | 56 | 1019.3 |
| 20260508055508 | 62 | 360 | 1.0 | 2.0 | 0.00 | 0.00 | 0.00 | 55 | 1019.2 |
| 20260508055012 | 62 | 360 | 0.0 | 3.0 | 0.00 | 0.00 | 0.00 | 55 | 1019.1 |
| 20260508054508 | 62 | 360 | 1.0 | 3.0 | 0.00 | 0.00 | 0.00 | 54 | 1019.0 |
| 20260508054013 | 62 | 360 | 0.0 | 3.0 | 0.00 | 0.00 | 0.00 | 54 | 1018.8 |
| 20260508053507 | 62 | 360 | 0.0 | 3.0 | 0.00 | 0.00 | 0.00 | 54 | 1018.7 |
| 20260508053011 | 62 | 360 | 0.0 | 3.0 | 0.00 | 0.00 | 0.00 | 54 | 1018.6 |
| 20260508052507 | 62 | 360 | 0.0 | 2.0 | 0.00 | 0.00 | 0.00 | 53 | 1018.6 |
| 20260508052007 | 62 | 360 | 1.0 | 2.0 | 0.00 | 0.00 | 0.00 | 53 | 1018.6 |
| 20260508051506 | 62 | 140 | 0.0 | 3.0 | 0.00 | 0.00 | 0.00 | 52 | 1018.5 |
| 20260508051011 | 62 | 138 | 0.0 | 3.0 | 0.00 | 0.00 | 0.00 | 51 | 1018.5 |
| 20260508050506 | 62 | 134 | 0.0 | 6.0 | 0.00 | 0.00 | 0.00 | 51 | 1018.5 |
| 20260508050005 | 62 | 133 | 1.0 | 6.0 | 0.00 | 0.00 | 0.00 | 50 | 1018.5 |
| 20260508045507 | 62 | 150 | 1.0 | 3.0 | 0.00 | 0.00 | 0.00 | 50 | 1018.4 |
| 20260508045004 | 62 | 169 | 1.0 | 4.0 | 0.00 | 0.00 | 0.00 | 50 | 1018.4 |
| 20260508044505 | 61 | 137 | 1.0 | 4.0 | 0.00 | 0.00 | 0.00 | 50 | 1018.4 |
| 20260508044002 | 61 | 360 | 1.0 | 5.0 | 0.00 | 0.00 | 0.00 | 51 | 1018.2 |
| 20260508043502 | 61 | 134 | 2.0 | 6.0 | 0.00 | 0.00 | 0.00 | 52 | 1017.9 |
| 20260508043001 | 61 | 360 | 3.0 | 5.0 | 0.00 | 0.00 | 0.00 | 52 | 1017.7 |
| 20260508042501 | 61 | 147 | 3.0 | 6.0 | 0.00 | 0.00 | 0.00 | 52 | 1017.7 |
| 20260508042100 | 61 | 140 | 2.0 | 5.0 | 0.00 | 0.00 | 0.00 | 53 | 1017.8 |
| 20260508041559 | 61 | 131 | 2.0 | 5.0 | 0.00 | 0.00 | 0.00 | 54 | 1017.8 |
| 20260508041059 | 60 | 164 | 1.0 | 5.0 | 0.00 | 0.00 | 0.00 | 55 | 1017.7 |
| 20260508040559 | 60 | 131 | 1.0 | 4.0 | 0.00 | 0.00 | 0.00 | 55 | 1017.7 |
| 20260508040101 | 60 | 360 | 1.0 | 3.0 | 0.00 | 0.00 | 0.00 | 55 | 1017.5 |
| 20260508035559 | 60 | 360 | 0.0 | 4.0 | 0.00 | 0.00 | 0.00 | 55 | 1017.5 |
| 20260508035058 | 60 | 360 | 2.0 | 4.0 | 0.00 | 0.00 | 0.00 | 56 | 1017.5 |
| 20260508034558 | 60 | 360 | 1.0 | 3.0 | 0.00 | 0.00 | 0.00 | 56 | 1017.4 |
| 20260508034057 | 60 | 360 | 1.0 | 3.0 | 0.00 | 0.00 | 0.00 | 57 | 1017.5 |
| 20260508033557 | 60 | 97 | 1.0 | 3.0 | 0.00 | 0.00 | 0.00 | 58 | 1017.5 |
| 20260508033100 | 60 | 153 | 1.0 | 3.0 | 0.00 | 0.00 | 0.00 | 58 | 1017.5 |
| 20260508032559 | 60 | 161 | 0.0 | 1.0 | 0.00 | 0.00 | 0.00 | 58 | 1017.6 |
| 20260508032059 | 60 | 161 | 0.0 | 3.0 | 0.00 | 0.00 | 0.00 | 58 | 1017.5 |
| 20260508031559 | 60 | 161 | 1.0 | 5.0 | 0.00 | 0.00 | 0.00 | 59 | 1017.6 |
| 20260508031056 | 60 | 154 | 2.0 | 4.0 | 0.00 | 0.00 | 0.00 | 60 | 1017.5 |
| 20260508030556 | 60 | 107 | 1.0 | 3.0 | 0.00 | 0.00 | 0.00 | 59 | 1017.5 |
| 20260508025559 | 60 | 107 | 0.0 | 2.0 | 0.00 | 0.00 | 0.00 | 59 | 1017.5 |
| 20260508025055 | 60 | 106 | 0.0 | 0.0 | 0.00 | 0.00 | 0.00 | 60 | 1017.5 |
| 20260508024617 | 60 | 106 | 0.0 | 0.0 | 0.00 | 0.00 | 0.00 | 61 | 1017.6 |
| 20260508024055 | 60 | 106 | 0.0 | 2.0 | 0.00 | 0.00 | 0.00 | 62 | 1017.7 |
| 20260508023555 | 60 | 106 | 0.0 | 3.0 | 0.00 | 0.00 | 0.00 | 62 | 1017.6 |
| 20260508023055 | 60 | 98 | 0.0 | 2.0 | 0.00 | 0.00 | 0.00 | 62 | 1017.6 |
| 20260508022556 | 60 | 98 | 0.0 | 2.0 | 0.00 | 0.00 | 0.00 | 63 | 1017.6 |
| 20260508022053 | 60 | 97 | 0.0 | 2.0 | 0.00 | 0.00 | 0.00 | 63 | 1017.6 |
| 20260508021603 | 60 | 97 | 0.0 | 3.0 | 0.00 | 0.00 | 0.00 | 63 | 1017.5 |
| 20260508021053 | 59 | 98 | 0.0 | 3.0 | 0.00 | 0.00 | 0.00 | 63 | 1017.6 |
| 20260508020552 | 60 | 98 | 0.0 | 2.0 | 0.00 | 0.00 | 0.00 | 63 | 1017.6 |
| 20260508020057 | 60 | 98 | 0.0 | 2.0 | 0.00 | 0.00 | 0.00 | 63 | 1017.5 |
| 20260508015552 | 60 | 132 | 0.0 | 2.0 | 0.00 | 0.00 | 0.00 | 63 | 1017.5 |
| 20260508015052 | 60 | 134 | 0.0 | 2.0 | 0.00 | 0.00 | 0.00 | 64 | 1017.6 |
| 20260508014554 | 60 | 134 | 0.0 | 2.0 | 0.00 | 0.00 | 0.00 | 64 | 1017.6 |
| 20260508014050 | 60 | 135 | 0.0 | 3.0 | 0.00 | 0.00 | 0.00 | 64 | 1017.7 |
| 20260508013550 | 60 | 135 | 0.0 | 3.0 | 0.00 | 0.00 | 0.00 | 64 | 1017.7 |
| 20260508013051 | 60 | 122 | 0.0 | 2.0 | 0.00 | 0.00 | 0.00 | 65 | 1017.7 |
| 20260508012549 | 60 | 123 | 0.0 | 2.0 | 0.00 | 0.00 | 0.00 | 65 | 1017.8 |
| 20260508012049 | 60 | 122 | 0.0 | 3.0 | 0.00 | 0.00 | 0.00 | 66 | 1017.8 |
| 20260508011549 | 60 | 122 | 0.0 | 3.0 | 0.00 | 0.00 | 0.00 | 67 | 1017.9 |
| 20260508011047 | 60 | 118 | 0.0 | 2.0 | 0.00 | 0.00 | 0.00 | 68 | 1018.1 |
| 20260508010547 | 60 | 118 | 0.0 | 2.0 | 0.00 | 0.00 | 0.00 | 68 | 1018.1 |
| 20260508010053 | 60 | 117 | 0.0 | 2.0 | 0.00 | 0.00 | 0.00 | 68 | 1018.1 |
| 20260508005549 | 60 | 118 | 0.0 | 2.0 | 0.00 | 0.00 | 0.00 | 69 | 1018.2 |
| 20260508005046 | 59 | 118 | 1.0 | 2.0 | 0.00 | 0.00 | 0.00 | 70 | 1018.2 |
| 20260508004553 | 59 | 108 | 0.0 | 1.0 | 0.00 | 0.00 | 0.00 | 70 | 1018.1 |
| 20260508004045 | 59 | 109 | 0.0 | 2.0 | 0.00 | 0.00 | 0.00 | 70 | 1018.2 |
| 20260508003546 | 59 | 108 | 0.0 | 2.0 | 0.00 | 0.00 | 0.00 | 70 | 1018.2 |
| 20260508003045 | 59 | 109 | 0.0 | 2.0 | 0.00 | 0.00 | 0.00 | 70 | 1018.2 |
| 20260508002544 | 59 | 108 | 0.0 | 2.0 | 0.00 | 0.00 | 0.00 | 69 | 1018.3 |
| 20260508002043 | 59 | 107 | 0.0 | 2.0 | 0.00 | 0.00 | 0.00 | 69 | 1018.3 |
| 20260508001547 | 59 | 107 | 0.0 | 2.0 | 0.00 | 0.00 | 0.00 | 68 | 1018.3 |
| 20260508001042 | 60 | 107 | 0.0 | 2.0 | 0.00 | 0.00 | 0.00 | 68 | 1018.3 |
| 20260508000542 | 60 | 107 | 0.0 | 2.0 | 0.00 | 0.00 | 0.00 | 67 | 1018.4 |
| 20260508000040 | 60 | 147 | 0.0 | 3.0 | 0.00 | 0.00 | 0.00 | 67 | 1018.5 |
| 20260507235540 | 60 | 149 | 1.0 | 3.0 | 0.00 | 0.00 | 0.00 | 66 | 1018.6 |
| 20260507235040 | 60 | 89 | 0.0 | 2.0 | 0.00 | 0.00 | 0.00 | 66 | 1018.6 |
| 20260507234540 | 60 | 90 | 0.0 | 2.0 | 0.00 | 0.00 | 0.00 | 65 | 1018.6 |
| 20260507234039 | 60 | 90 | 0.0 | 1.0 | 0.00 | 0.00 | 0.00 | 65 | 1018.7 |
| 20260507233539 | 60 | 90 | 0.0 | 2.0 | 0.00 | 0.00 | 0.00 | 65 | 1018.7 |
| 20260507233039 | 60 | 90 | 0.0 | 2.0 | 0.00 | 0.00 | 0.00 | 64 | 1018.7 |
| 20260507232539 | 60 | 90 | 0.0 | 1.0 | 0.00 | 0.00 | 0.00 | 64 | 1018.7 |
| 20260507232037 | 60 | 90 | 0.0 | 2.0 | 0.00 | 0.00 | 0.00 | 64 | 1018.7 |
| 20260507231542 | 60 | 90 | 0.0 | 2.0 | 0.00 | 0.00 | 0.00 | 63 | 1018.6 |
| 20260507231036 | 60 | 90 | 0.0 | 1.0 | 0.00 | 0.00 | 0.00 | 62 | 1018.8 |
| 20260507230539 | 60 | 94 | 0.0 | 0.0 | 0.00 | 0.00 | 0.00 | 62 | 1018.8 |
| 20260507230035 | 60 | 92 | 0.0 | 2.0 | 0.00 | 0.00 | 0.00 | 61 | 1018.9 |
| 20260507225534 | 60 | 92 | 0.0 | 2.0 | 0.00 | 0.00 | 0.00 | 61 | 1019.0 |
| 20260507225034 | 60 | 92 | 0.0 | 2.0 | 0.00 | 0.00 | 0.00 | 60 | 1019.1 |
| 20260507224534 | 60 | 92 | 0.0 | 2.0 | 0.00 | 0.00 | 0.00 | 60 | 1019.1 |
| 20260507224033 | 60 | 105 | 0.0 | 2.0 | 0.00 | 0.00 | 0.00 | 59 | 1019.0 |
| 20260507223532 | 60 | 105 | 0.0 | 2.0 | 0.00 | 0.00 | 0.00 | 59 | 1019.1 |
| 20260507223034 | 61 | 105 | 0.0 | 2.0 | 0.00 | 0.00 | 0.00 | 58 | 1019.0 |
| 20260507222530 | 61 | 104 | 0.0 | 3.0 | 0.00 | 0.00 | 0.00 | 57 | 1019.1 |
| 20260507222029 | 61 | 104 | 0.0 | 3.0 | 0.00 | 0.00 | 0.00 | 57 | 1019.2 |
| 20260507221533 | 61 | 109 | 0.0 | 2.0 | 0.00 | 0.00 | 0.00 | 56 | 1019.2 |
| 20260507221032 | 61 | 117 | 1.0 | 2.0 | 0.00 | 0.00 | 0.00 | 55 | 1019.2 |
| 20260507220531 | 61 | 117 | 0.0 | 3.0 | 0.00 | 0.00 | 0.00 | 54 | 1019.2 |
| 20260507220026 | 62 | 117 | 1.0 | 3.0 | 0.00 | 0.00 | 0.00 | 54 | 1019.3 |
| 20260507215526 | 62 | 131 | 1.0 | 3.0 | 0.00 | 0.00 | 0.00 | 53 | 1019.4 |
| 20260507215025 | 62 | 140 | 1.0 | 4.0 | 0.00 | 0.00 | 0.00 | 52 | 1019.3 |
| 20260507214524 | 62 | 150 | 0.0 | 6.0 | 0.00 | 0.00 | 0.00 | 50 | 1019.4 |
| 20260507214024 | 62 | 124 | 2.0 | 6.0 | 0.00 | 0.00 | 0.00 | 49 | 1019.4 |
| 20260507213523 | 62 | 161 | 1.0 | 3.0 | 0.00 | 0.00 | 0.00 | 48 | 1019.4 |
| 20260507213028 | 62 | 140 | 1.0 | 3.0 | 0.00 | 0.00 | 0.00 | 48 | 1019.4 |
| 20260507212521 | 62 | 114 | 1.0 | 3.0 | 0.00 | 0.00 | 0.00 | 47 | 1019.4 |
| 20260507212021 | 62 | 115 | 1.0 | 3.0 | 0.00 | 0.00 | 0.00 | 46 | 1019.5 |
| 20260507211520 | 63 | 55 | 0.0 | 2.0 | 0.00 | 0.00 | 0.00 | 45 | 1019.5 |
| 20260507211022 | 63 | 56 | 0.0 | 3.0 | 0.00 | 0.00 | 0.00 | 44 | 1019.4 |
| 20260507210522 | 63 | 69 | 0.0 | 3.0 | 0.00 | 0.00 | 0.00 | 44 | 1019.3 |
| 20260507210017 | 63 | 69 | 1.0 | 4.0 | 0.00 | 0.00 | 0.00 | 44 | 1019.3 |
| 20260507205517 | 63 | 86 | 0.0 | 4.0 | 0.00 | 0.00 | 0.00 | 44 | 1019.3 |
| 20260507205018 | 63 | 90 | 0.0 | 4.0 | 0.00 | 0.00 | 0.00 | 43 | 1019.3 |
| 20260507204517 | 63 | 88 | 0.0 | 2.0 | 0.00 | 0.00 | 0.00 | 45 | 1019.4 |
| 20260507204017 | 63 | 89 | 0.0 | 3.0 | 0.00 | 0.00 | 0.00 | 45 | 1019.4 |
| 20260507203520 | 62 | 92 | 0.0 | 3.0 | 0.00 | 0.00 | 0.00 | 45 | 1019.4 |
| 20260507203032 | 62 | 78 | 1.0 | 3.0 | 0.00 | 0.00 | 0.00 | 46 | 1019.4 |
| 20260507202518 | 63 | 80 | 0.0 | 2.0 | 0.00 | 0.00 | 0.00 | 46 | 1019.4 |
| 20260507202016 | 63 | 80 | 0.0 | 2.0 | 0.00 | 0.00 | 0.00 | 47 | 1019.5 |
| 20260507201517 | 63 | 79 | 0.0 | 3.0 | 0.00 | 0.00 | 0.00 | 46 | 1019.5 |
| 20260507201016 | 63 | 79 | 1.0 | 3.0 | 0.00 | 0.00 | 0.00 | 46 | 1019.4 |
| 20260507200519 | 63 | 80 | 1.0 | 4.0 | 0.00 | 0.00 | 0.00 | 47 | 1019.4 |
| 20260507200016 | 63 | 81 | 0.0 | 4.0 | 0.00 | 0.00 | 0.00 | 47 | 1019.4 |
| 20260507195515 | 63 | 51 | 0.0 | 4.0 | 0.00 | 0.00 | 0.00 | 48 | 1019.4 |
| 20260507195016 | 63 | 27 | 1.0 | 4.0 | 0.00 | 0.00 | 0.00 | 48 | 1019.5 |
| 20260507194522 | 63 | 77 | 0.0 | 4.0 | 0.00 | 0.00 | 0.00 | 48 | 1019.5 |
| 20260507194019 | 63 | 82 | 1.0 | 4.0 | 0.00 | 0.00 | 0.00 | 49 | 1019.5 |
| 20260507193515 | 63 | 78 | 1.0 | 4.0 | 0.00 | 0.00 | 0.00 | 50 | 1019.5 |
| 20260507193018 | 63 | 103 | 0.0 | 3.0 | 0.00 | 0.00 | 0.00 | 50 | 1019.5 |
| 20260507192516 | 63 | 95 | 0.0 | 3.0 | 0.00 | 0.00 | 0.00 | 51 | 1019.5 |
| 20260507192015 | 63 | 94 | 0.0 | 3.0 | 0.00 | 0.00 | 0.00 | 52 | 1019.5 |
| 20260507191519 | 63 | 94 | 1.0 | 3.0 | 0.00 | 0.00 | 0.00 | 52 | 1019.4 |
| 20260507191017 | 63 | 90 | 0.0 | 2.0 | 0.00 | 0.00 | 0.00 | 53 | 1019.4 |
| 20260507190514 | 63 | 95 | 0.0 | 2.0 | 0.00 | 0.00 | 0.00 | 53 | 1019.4 |
| 20260507190016 | 63 | 94 | 1.0 | 2.0 | 0.00 | 0.00 | 0.00 | 53 | 1019.4 |
| 20260507185513 | 63 | 94 | 0.0 | 2.0 | 0.00 | 0.00 | 0.00 | 53 | 1019.4 |
| 20260507185013 | 63 | 93 | 0.0 | 4.0 | 0.00 | 0.00 | 0.00 | 52 | 1019.5 |
| 20260507184520 | 63 | 71 | 0.0 | 2.0 | 0.00 | 0.00 | 0.00 | 51 | 1019.4 |
| 20260507184014 | 63 | 72 | 0.0 | 2.0 | 0.00 | 0.00 | 0.00 | 51 | 1019.3 |
| 20260507183513 | 63 | 72 | 0.0 | 2.0 | 0.00 | 0.00 | 0.00 | 50 | 1019.3 |
| 20260507183014 | 63 | 72 | 0.0 | 2.0 | 0.00 | 0.00 | 0.00 | 49 | 1019.3 |
| 20260507182513 | 64 | 74 | 0.0 | 3.0 | 0.00 | 0.00 | 0.00 | 48 | 1019.3 |
| 20260507182013 | 64 | 74 | 1.0 | 3.0 | 0.00 | 0.00 | 0.00 | 47 | 1019.1 |
| 20260507181512 | 64 | 98 | 0.0 | 3.0 | 0.00 | 0.00 | 0.00 | 46 | 1019.2 |
| 20260507181018 | 64 | 97 | 0.0 | 3.0 | 0.00 | 0.00 | 0.00 | 44 | 1019.2 |
| 20260507180512 | 64 | 130 | 1.0 | 3.0 | 0.00 | 0.00 | 0.00 | 43 | 1019.2 |
| 20260507180017 | 64 | 142 | 1.0 | 3.0 | 0.00 | 0.00 | 0.00 | 43 | 1019.3 |
| 20260507175514 | 64 | 176 | 0.0 | 4.0 | 0.00 | 0.00 | 0.00 | 42 | 1019.2 |
| 20260507175014 | 64 | 47 | 1.0 | 4.0 | 0.00 | 0.00 | 0.00 | 43 | 1019.1 |
| 20260507174520 | 64 | 63 | 1.0 | 4.0 | 0.00 | 0.00 | 0.00 | 43 | 1019.1 |
| 20260507174015 | 64 | 57 | 1.0 | 4.0 | 0.00 | 0.00 | 0.00 | 43 | 1019.0 |
| 20260507173512 | 64 | 140 | 0.0 | 2.0 | 0.00 | 0.00 | 0.00 | 44 | 1019.1 |
| 20260507173025 | 65 | 168 | 0.0 | 1.0 | 0.00 | 0.00 | 0.00 | 42 | 1019.2 |
| 20260507172512 | 65 | 167 | 0.0 | 3.0 | 0.00 | 0.00 | 0.00 | 43 | 1019.1 |
| 20260507172010 | 66 | 167 | 1.0 | 4.0 | 0.00 | 0.00 | 0.00 | 44 | 1019.2 |
| 20260507171520 | 66 | 96 | 0.0 | 0.0 | 0.00 | 0.00 | 0.00 | 45 | 1019.1 |
| 20260507171011 | 66 | 94 | 0.0 | 0.0 | 0.00 | 0.00 | 0.00 | 45 | 1018.9 |
| 20260507170511 | 66 | 94 | 0.0 | 0.0 | 0.00 | 0.00 | 0.00 | 45 | 1018.8 |
| 20260507170010 | 66 | 360 | 0.0 | 0.0 | 0.00 | 0.00 | 0.00 | 45 | 1018.7 |
| 20260507165514 | 66 | 360 | 0.0 | 0.0 | 0.00 | 0.00 | 0.00 | 45 | 1018.7 |
| 20260507165010 | 66 | 360 | 0.0 | 0.0 | 0.00 | 0.00 | 0.00 | 45 | 1018.8 |
| 20260507164513 | 66 | 360 | 0.0 | 0.0 | 0.00 | 0.00 | 0.00 | 46 | 1018.7 |
| 20260507164010 | 66 | 360 | 0.0 | 0.0 | 0.00 | 0.00 | 0.00 | 45 | 1018.8 |
| 20260507163514 | 66 | 360 | 0.0 | 1.0 | 0.00 | 0.00 | 0.00 | 45 | 1018.8 |
| 20260507163010 | 67 | 86 | 0.0 | 2.0 | 0.00 | 0.00 | 0.00 | 43 | 1019.0 |
| 20260507162515 | 67 | 87 | 0.0 | 2.0 | 0.00 | 0.00 | 0.00 | 43 | 1019.0 |
| 20260507162010 | 67 | 86 | 0.0 | 1.0 | 0.00 | 0.00 | 0.00 | 43 | 1018.9 |
| 20260507161509 | 67 | 360 | 0.0 | 3.0 | 0.00 | 0.00 | 0.00 | 43 | 1018.9 |
| 20260507161009 | 67 | 86 | 1.0 | 3.0 | 0.00 | 0.00 | 0.00 | 42 | 1019.0 |
| 20260507160509 | 67 | 360 | 0.0 | 3.0 | 0.00 | 0.00 | 0.00 | 42 | 1019.0 |
| 20260507160011 | 68 | 80 | 0.0 | 4.0 | 0.00 | 0.00 | 0.00 | 41 | 1019.0 |
| 20260507155515 | 68 | 80 | 1.0 | 4.0 | 0.00 | 0.00 | 0.00 | 40 | 1019.0 |
| 20260507155011 | 68 | 41 | 1.0 | 5.0 | 0.00 | 0.00 | 0.00 | 40 | 1018.9 |
| 20260507154508 | 69 | 76 | 1.0 | 5.0 | 0.00 | 0.00 | 0.00 | 38 | 1018.9 |
| 20260507154011 | 69 | 20 | 2.0 | 4.0 | 0.00 | 0.00 | 0.00 | 37 | 1019.0 |
| 20260507153508 | 69 | 76 | 2.0 | 5.0 | 0.00 | 0.00 | 0.00 | 36 | 1019.2 |
| 20260507153008 | 70 | 96 | 1.0 | 4.0 | 0.00 | 0.00 | 0.00 | 35 | 1019.2 |
| 20260507152508 | 70 | 66 | 2.0 | 6.0 | 0.00 | 0.00 | 0.00 | 36 | 1019.2 |
| 20260507152013 | 70 | 84 | 1.0 | 6.0 | 0.00 | 0.00 | 0.00 | 35 | 1019.1 |
| 20260507151508 | 70 | 67 | 1.0 | 7.0 | 0.00 | 0.00 | 0.00 | 33 | 1019.1 |
| 20260507151008 | 70 | 59 | 2.0 | 7.0 | 0.00 | 0.00 | 0.00 | 33 | 1019.1 |
| 20260507150509 | 70 | 16 | 1.0 | 5.0 | 0.00 | 0.00 | 0.00 | 34 | 1019.1 |
| 20260507150007 | 70 | 69 | 2.0 | 5.0 | 0.00 | 0.00 | 0.00 | 34 | 1019.2 |
| 20260507145507 | 71 | 78 | 1.0 | 7.0 | 0.00 | 0.00 | 0.00 | 34 | 1019.1 |
| 20260507145012 | 71 | 138 | 2.0 | 8.0 | 0.00 | 0.00 | 0.00 | 34 | 1019.1 |
| 20260507144506 | 71 | 80 | 3.0 | 8.0 | 0.00 | 0.00 | 0.00 | 33 | 1019.1 |
| 20260507144006 | 71 | 74 | 2.0 | 6.0 | 0.00 | 0.00 | 0.00 | 34 | 1019.1 |
| 20260507143510 | 72 | 71 | 1.0 | 4.0 | 0.00 | 0.00 | 0.00 | 34 | 1019.2 |
| 20260507143006 | 72 | 50 | 1.0 | 9.0 | 0.00 | 0.00 | 0.00 | 33 | 1019.1 |
| 20260507142506 | 73 | 314 | 3.0 | 9.0 | 0.00 | 0.00 | 0.00 | 31 | 1019.1 |
| 20260507142007 | 73 | 86 | 2.0 | 5.0 | 0.00 | 0.00 | 0.00 | 34 | 1019.1 |
| 20260507141504 | 73 | 80 | 1.0 | 8.0 | 0.00 | 0.00 | 0.00 | 34 | 1018.9 |
| 20260507141004 | 73 | 29 | 2.0 | 8.0 | 0.00 | 0.00 | 0.00 | 35 | 1018.8 |
| 20260507140504 | 73 | 126 | 2.0 | 7.0 | 0.00 | 0.00 | 0.00 | 34 | 1018.8 |
| 20260507140004 | 73 | 136 | 1.0 | 8.0 | 0.00 | 0.00 | 0.00 | 34 | 1018.7 |
| 20260507135503 | 73 | 35 | 1.0 | 5.0 | 0.00 | 0.00 | 0.00 | 38 | 1018.6 |
| 20260507135004 | 74 | 171 | 1.0 | 6.0 | 0.00 | 0.00 | 0.00 | 40 | 1018.7 |
| 20260507134504 | 73 | 105 | 1.0 | 6.0 | 0.00 | 0.00 | 0.00 | 39 | 1018.7 |
| 20260507134003 | 73 | 92 | 2.0 | 6.0 | 0.00 | 0.00 | 0.00 | 44 | 1018.7 |
| 20260507133503 | 73 | 90 | 2.0 | 6.0 | 0.00 | 0.00 | 0.00 | 44 | 1018.5 |
| 20260507133002 | 73 | 87 | 1.0 | 5.0 | 0.00 | 0.00 | 0.00 | 47 | 1018.5 |
| 20260507132503 | 73 | 45 | 1.0 | 5.0 | 0.00 | 0.00 | 0.00 | 46 | 1018.6 |
| 20260507132002 | 73 | 69 | 1.0 | 5.0 | 0.00 | 0.00 | 0.00 | 44 | 1018.5 |
| 20260507131502 | 73 | 67 | 1.0 | 4.0 | 0.00 | 0.00 | 0.00 | 45 | 1018.5 |
| 20260507131002 | 72 | 360 | 1.0 | 5.0 | 0.00 | 0.00 | 0.00 | 45 | 1018.6 |
| 20260507130503 | 73 | 50 | 1.0 | 5.0 | 0.00 | 0.00 | 0.00 | 43 | 1018.6 |
| 20260507130002 | 73 | 54 | 1.0 | 4.0 | 0.00 | 0.00 | 0.00 | 41 | 1018.8 |
| 20260507125502 | 73 | 282 | 1.0 | 4.0 | 0.00 | 0.00 | 0.00 | 41 | 1018.9 |
| 20260507125002 | 73 | 83 | 1.0 | 11.0 | 0.00 | 0.00 | 0.00 | 39 | 1019.0 |
| 20260507124501 | 74 | 347 | 2.0 | 11.0 | 0.00 | 0.00 | 0.00 | 40 | 1019.0 |
| 20260507124002 | 74 | 103 | 2.0 | 7.0 | 0.00 | 0.00 | 0.00 | 39 | 1019.0 |
| 20260507123501 | 75 | 71 | 2.0 | 7.0 | 0.00 | 0.00 | 0.00 | 39 | 1019.1 |
| 20260507123002 | 75 | 161 | 2.0 | 7.0 | 0.00 | 0.00 | 0.00 | 38 | 1019.2 |
| 20260507122500 | 75 | 83 | 1.0 | 6.0 | 0.00 | 0.00 | 0.00 | 37 | 1019.2 |
| 20260507122101 | 76 | 110 | 2.0 | 6.0 | 0.00 | 0.00 | 0.00 | 36 | 1019.1 |
| 20260507121603 | 76 | 61 | 2.0 | 6.0 | 0.00 | 0.00 | 0.00 | 36 | 1019.1 |
| 20260507121100 | 75 | 42 | 2.0 | 8.0 | 0.00 | 0.00 | 0.00 | 35 | 1019.2 |
| 20260507120559 | 76 | 144 | 1.0 | 8.0 | 0.00 | 0.00 | 0.00 | 33 | 1019.2 |
| 20260507120105 | 76 | 63 | 3.0 | 8.0 | 0.00 | 0.00 | 0.00 | 33 | 1019.1 |
| 20260507115558 | 77 | 51 | 2.0 | 5.0 | 0.00 | 0.00 | 0.00 | 36 | 1019.1 |